Terminal Aerodrome Forecast
Issued by NWS Shreveport, LA

Home | Current Version | Previous Version | Text Only | Print | Product List | Glossary On
Versions: 1 2 3 4 5 6 7 8 9 10 11 12 13 14 15 16 17 18 19 20
761
FTUS44 KSHV 300901 AAA
TAFELD
TAF AMD
KELD 300901Z 3009/0106 17011KT P6SM TSRA OVC100CB
     FM301200 19010KT 4SM -TSRA BR OVC015CB
     FM301800 19010KT P6SM VCTS OVC025CB
     FM302300 20005KT P6SM OVC035=

USA.gov is the U.S. government's official web portal to all federal, state and local government web resources and services.